[[{"header":{"parameterUnit":"m.s-1","parameterCategory":1,"la1":30.2991,"la2":30.254,"lo1":-89.0895,"lo2":-89.0444,"dy":0.0017,"dx":0.0017,"nx":28,"ny":28,"refTime":"2024-06-21T21:00:00:Z","depth":0,"parameterNumber":2,"parameterNumberName":"U-component_of_WINDS"},"data":[0,0,0,0,0,0,0,0,0,0,0,0,0,0,0,0,0,0,0,0,0,0,0,0,0,0,0,0,0,0,0,0,0,0,0,0,0,0,0,0,0,0,0,0,0,0,0,0,0,0,0,0,0,0,0,0,0,0,-1.8035,-1.8035,0,-1.8007,-1.8007,-1.8007,-1.8011,-1.8012,-1.8012,-1.8012,-1.7982,-1.7981,-1.7979,0,0,0,0,0,0,0,0,0,0,0,0,0,-1.8089,-1.8088,-1.8035,-1.8035,-1.8034,-1.8007,-1.8007,-1.8007,-1.8011,-1.8012,-1.8012,-1.8013,-1.7982,-1.7981,-1.7979,0,0,0,0,0,0,0,0,0,0,0,0,0,-1.8064,-1.8087,-1.8035,-1.8033,-1.8033,-1.8007,-1.8007,-1.8006,-1.8011,-1.8012,-1.8012,-1.8013,-1.7983,-1.7981,-1.7979,-1.7953,0,0,-1.7973,-1.7973,0,0,0,0,0,0,0,0,-1.8065,-1.8062,-1.8034,-1.8033,-1.8033,-1.8013,-1.8015,-1.7988,-1.8011,-1.8019,-1.8012,-1.8013,-1.7992,-1.7989,-1.7982,-1.7952,-1.795,-1.7973,-1.7972,-1.7971,-1.7971,0,0,0,0,0,0,0,-1.8067,-1.8063,-1.8024,-1.8033,-1.8033,-1.8033,-1.803,-1.801,-1.8002,-1.8018,-1.8019,-1.8015,-1.7991,-1.7984,-1.7982,-1.795,-1.7973,-1.7972,-1.797,-1.797,-1.7896,-1.7896,0,0,0,0,0,0,-1.8069,-1.8064,-1.8025,-1.8023,-1.8051,-1.8031,-1.8028,-1.8019,-1.8002,-1.8,-1.8015,-1.8016,-1.7987,-1.7984,-1.798,-1.7949,-1.7971,-1.7969,-1.7968,-1.7897,-1.7896,-1.7895,0,0,0,0,0,0,-1.8071,-1.8066,-1.8026,-1.8044,-1.8039,-1.803,-1.8019,-1.8018,-1.8011,-1.7999,-1.7998,-1.8009,-1.7987,-1.7983,-1.796,-1.7948,-1.7969,-1.7967,-1.7898,-1.7897,-1.7896,-1.7886,0,0,0,0,0,0,-1.8072,-1.8066,-1.8057,-1.8044,-1.8038,-1.8007,-1.8018,-1.8017,-1.8008,-1.8008,-1.7993,-1.7991,-1.7988,-1.7963,-1.7958,-1.7946,-1.7965,-1.7899,-1.7898,-1.7896,-1.7888,-1.7885,-1.7883,0,0,0,0,0,-1.8074,-1.8055,-1.8056,-1.8052,-1.8026,-1.8006,-1.8003,-1.7999,-1.8007,-1.7997,-1.7989,-1.7992,-1.795,-1.796,-1.7955,-1.7942,-1.79,-1.7898,-1.7896,-1.7889,-1.7885,-1.7883,0,0,0,0,0,0,-1.8066,-1.8053,-1.8055,-1.8031,-1.8019,-1.8007,-1.7994,-1.7996,-1.7982,-1.7983,-1.7979,-1.7975,-1.7952,-1.7945,-1.7956,-1.7916,-1.7926,-1.7923,-1.7922,-1.7919,-1.7916,-1.7919,-1.7964,0,0,0,0,0,-1.8062,-1.8047,-1.8036,-1.8016,-1.801,-1.8003,-1.7994,-1.7993,-1.7981,-1.7976,-1.7967,-1.7954,-1.7938,-1.7928,-1.7913,-1.7886,-1.7883,-1.7875,-1.7872,-1.787,-1.7868,-1.7854,-1.785,-1.7889,-1.7889,-1.789,0,0,-1.8052,-1.8043,-1.8034,-1.8014,-1.8005,-1.799,-1.7999,-1.7982,-1.7971,-1.7973,-1.7951,-1.7944,-1.793,-1.7905,-1.7893,-1.7898,-1.7856,-1.7868,-1.7866,-1.7865,-1.7851,-1.7848,-1.7844,-1.7888,-1.7888,-1.7889,0,0,-1.8027,-1.8019,-1.8001,-1.7992,-1.7979,-1.7975,-1.797,-1.7957,-1.7953,-1.7931,-1.7932,-1.7918,-1.7891,-1.7881,-1.7872,-1.7843,-1.7845,-1.7838,-1.7825,-1.7811,-1.7808,-1.7805,-1.7795,-1.7791,-1.7835,-1.7835,-1.7835,0,-1.8017,-1.7994,-1.7992,-1.7975,-1.7966,-1.7968,-1.795,-1.7941,-1.7923,-1.7917,-1.7922,-1.7888,-1.7879,-1.7852,-1.7845,-1.7837,-1.7832,-1.784,-1.7808,-1.7806,-1.7803,-1.7793,-1.779,-1.7835,-1.7835,-1.7835,-1.7835,0,-1.7982,-1.7967,-1.7954,-1.7938,-1.7927,-1.791,-1.7904,-1.7894,-1.7893,-1.7887,-1.7865,-1.7853,-1.7836,-1.7829,-1.7828,-1.7802,-1.7805,-1.781,-1.782,-1.7799,-1.779,-1.7786,-1.7834,-1.7834,-1.7834,-1.7834,0,0,-1.7952,-1.7935,-1.793,-1.7923,-1.7909,-1.7896,-1.7878,-1.7862,-1.7853,-1.7841,-1.7826,-1.7802,-1.7806,-1.7797,-1.7794,-1.7782,-1.776,-1.7787,-1.7787,-1.7783,-1.7731,-1.7728,-1.7724,-1.7761,-1.776,-1.7759,-1.7732,0,-1.7926,-1.7897,-1.7894,-1.7867,-1.7852,-1.7853,-1.7838,-1.7827,-1.7821,-1.7808,-1.7801,-1.7785,-1.7791,-1.7785,-1.7773,-1.7765,-1.7749,-1.7767,-1.7746,-1.7746,-1.7751,-1.7719,-1.7716,-1.7691,-1.7728,-1.7728,-1.7727,0,-1.7892,-1.788,-1.7852,-1.7839,-1.7833,-1.782,-1.7805,-1.7791,-1.7779,-1.7775,-1.7764,-1.7763,-1.7744,-1.7755,-1.7728,-1.7741,-1.7732,-1.7727,-1.7725,-1.7724,-1.7736,-1.7717,-1.7683,-1.768,-1.7722,-1.7722,-1.7723,0,-1.7874,-1.785,-1.783,-1.7823,-1.7808,-1.7799,-1.7792,-1.778,-1.7771,-1.7757,-1.7751,-1.7734,-1.7726,-1.7713,-1.7708,-1.7715,-1.7682,-1.7691,-1.7678,-1.7678,-1.7672,-1.7672,-1.7636,-1.7665,-1.7665,-1.7665,-1.7665,0,-1.7846,-1.7829,-1.7822,-1.7809,-1.779,-1.7786,-1.7767,-1.776,-1.7749,-1.7736,-1.7735,-1.7722,-1.7715,-1.77,-1.7696,-1.7675,-1.7671,-1.7667,-1.7666,-1.7668,-1.7668,-1.7663,-1.7664,-1.7664,-1.7664,-1.7664,-1.7665,0,-1.7822,-1.7817,-1.7795,-1.7783,-1.7779,-1.7766,-1.7755,-1.7743,-1.7737,-1.7719,-1.7715,-1.7706,-1.7688,-1.7682,-1.766,-1.7657,-1.7633,-1.7633,-1.7638,-1.7638,-1.7626,-1.7627,-1.7585,-1.758,-1.7611,-1.7611,-1.7611,0,-1.7805,-1.7792,-1.7778,-1.777,-1.7763,-1.7748,-1.7739,-1.7734,-1.7724,-1.7708,-1.7698,-1.7681,-1.7668,-1.764,-1.7631,-1.7615,-1.7615,-1.7601,-1.7612,-1.7614,-1.7615,-1.7616,-1.7615,-1.7599,-1.7599,-1.7599,-1.7598,0,-1.7775,-1.7773,-1.776,-1.7746,-1.7735,-1.7723,-1.7712,-1.7704,-1.7698,-1.7686,-1.7669,-1.7659,-1.7637,-1.762,-1.7604,-1.7596,-1.7596,-1.7595,-1.7591,-1.7593,-1.7596,-1.7595,-1.7633,-1.7596,-1.7596,-1.7596,-1.7597,-1.7597,-1.7755,-1.7743,-1.7732,-1.7718,-1.7709,-1.7698,-1.7686,-1.7679,-1.7665,-1.7648,-1.7646,-1.7628,-1.7615,-1.7592,-1.7584,-1.7569,-1.7572,-1.7567,-1.7565,-1.7564,-1.7564,-1.7598,-1.7566,-1.7566,-1.7566,-1.7566,-1.7566,0,-1.7726,-1.7719,-1.7705,-1.769,-1.7678,-1.768,-1.7667,-1.7657,-1.7641,-1.7629,-1.7616,-1.7597,-1.758,-1.757,-1.7553,-1.7543,-1.7543,-1.7539,-1.754,-1.7538,-1.7561,-1.7567,-1.754,-1.754,-1.754,-1.754,-1.754,-1.754,-1.7709,-1.769,-1.7687,-1.7663,-1.7656,-1.7639,-1.7632,-1.7621,-1.7612,-1.7591,-1.7577,-1.7571,-1.756,-1.7542,-1.7527,-1.7524,-1.7518,-1.7514,-1.7512,-1.7534,-1.7537,-1.7539,-1.7544,-1.7513,-1.7513,-1.749,-1.749,-1.749]},{"header":{"parameterUnit":"m.s-1","parameterCategory":1,"la1":30.2991,"la2":30.254,"lo1":-89.0895,"lo2":-89.0444,"dy":0.0017,"dx":0.0017,"nx":28,"ny":28,"refTime":"2024-06-21T21:00:00:Z","depth":0,"parameterNumber":3,"parameterNumberName":"V-component_of_WINDS"},"data":[0,0,0,0,0,0,0,0,0,0,0,0,0,0,0,0,0,0,0,0,0,0,0,0,0,0,0,0,0,0,0,0,0,0,0,0,0,0,0,0,0,0,0,0,0,0,0,0,0,0,0,0,0,0,0,0,0,0,-0.6301,-0.6301,0,-0.6314,-0.6314,-0.6314,-0.6282,-0.6281,-0.628,-0.6279,-0.6292,-0.6294,-0.6295,0,0,0,0,0,0,0,0,0,0,0,0,0,-0.6247,-0.6248,-0.6301,-0.6301,-0.6301,-0.6314,-0.6314,-0.6314,-0.6282,-0.6281,-0.6279,-0.6278,-0.6292,-0.6294,-0.6295,0,0,0,0,0,0,0,0,0,0,0,0,0,-0.6266,-0.6248,-0.63,-0.6286,-0.6285,-0.6314,-0.6314,-0.6314,-0.6282,-0.6281,-0.6279,-0.6278,-0.6292,-0.6293,-0.6295,-0.6339,0,0,-0.6302,-0.6302,0,0,0,0,0,0,0,0,-0.6265,-0.6268,-0.6288,-0.6287,-0.6286,-0.6295,-0.63,-0.6323,-0.6283,-0.6283,-0.6279,-0.6277,-0.6294,-0.6296,-0.6302,-0.6339,-0.634,-0.6302,-0.6303,-0.6304,-0.6304,0,0,0,0,0,0,0,-0.6264,-0.6268,-0.6306,-0.6289,-0.6287,-0.6279,-0.628,-0.6304,-0.6297,-0.6283,-0.6281,-0.6283,-0.6294,-0.63,-0.6302,-0.634,-0.6302,-0.6303,-0.6305,-0.6305,-0.6414,-0.6416,0,0,0,0,0,0,-0.6264,-0.6267,-0.6305,-0.6306,-0.6272,-0.6282,-0.6283,-0.6293,-0.6297,-0.6296,-0.6284,-0.6281,-0.6298,-0.63,-0.6302,-0.6354,-0.6304,-0.6306,-0.6307,-0.6413,-0.6415,-0.6416,0,0,0,0,0,0,-0.6263,-0.6268,-0.6305,-0.6286,-0.629,-0.6284,-0.6296,-0.6295,-0.6301,-0.6298,-0.6296,-0.6292,-0.6296,-0.63,-0.633,-0.6354,-0.6306,-0.6308,-0.6411,-0.6413,-0.6416,-0.6457,0,0,0,0,0,0,-0.6262,-0.6268,-0.6284,-0.6286,-0.6291,-0.6332,-0.6298,-0.6296,-0.6305,-0.6301,-0.6305,-0.6304,-0.6295,-0.6327,-0.6332,-0.6356,-0.631,-0.6408,-0.6412,-0.6415,-0.6454,-0.6461,-0.6467,0,0,0,0,0,-0.626,-0.6295,-0.6285,-0.629,-0.6311,-0.6334,-0.6336,-0.6326,-0.6307,-0.6323,-0.6321,-0.6304,-0.635,-0.6331,-0.6336,-0.6361,-0.6407,-0.6411,-0.6414,-0.6451,-0.646,-0.6467,0,0,0,0,0,0,-0.6296,-0.6295,-0.6284,-0.6321,-0.6328,-0.6328,-0.6349,-0.6335,-0.6347,-0.6344,-0.633,-0.6331,-0.6364,-0.6365,-0.6343,-0.6403,-0.6375,-0.638,-0.6401,-0.641,-0.6416,-0.6416,-0.6311,0,0,0,0,0,-0.6308,-0.6326,-0.6325,-0.6357,-0.6361,-0.6355,-0.6364,-0.6355,-0.6362,-0.6364,-0.6364,-0.6371,-0.6387,-0.6398,-0.6413,-0.6453,-0.6454,-0.6473,-0.648,-0.6485,-0.649,-0.6512,-0.6521,-0.6429,-0.6429,-0.6429,0,0,-0.6334,-0.6335,-0.6348,-0.6365,-0.6369,-0.6389,-0.6357,-0.6379,-0.6394,-0.6367,-0.6397,-0.6397,-0.6404,-0.644,-0.6455,-0.6441,-0.6515,-0.649,-0.6494,-0.6496,-0.6517,-0.6526,-0.6534,-0.6432,-0.6431,-0.6431,0,0,-0.639,-0.6393,-0.6421,-0.6426,-0.6433,-0.6428,-0.6435,-0.6437,-0.6437,-0.6466,-0.6447,-0.6464,-0.6492,-0.6497,-0.6504,-0.6563,-0.6548,-0.6568,-0.6604,-0.6625,-0.6633,-0.6639,-0.6661,-0.6669,-0.6573,-0.6573,-0.6573,0,-0.6421,-0.645,-0.6437,-0.6461,-0.6469,-0.6446,-0.6475,-0.648,-0.6491,-0.6498,-0.6482,-0.6517,-0.652,-0.6557,-0.6572,-0.6577,-0.6585,-0.6568,-0.6633,-0.6639,-0.6645,-0.6666,-0.6674,-0.6575,-0.6575,-0.6575,-0.6575,0,-0.6488,-0.6508,-0.653,-0.6541,-0.6552,-0.6578,-0.657,-0.6582,-0.6572,-0.6569,-0.6599,-0.6602,-0.6617,-0.6625,-0.6615,-0.6661,-0.6653,-0.6635,-0.6607,-0.6656,-0.6676,-0.6683,-0.6579,-0.6578,-0.6577,-0.6577,0,0,-0.6567,-0.6572,-0.6581,-0.6586,-0.6592,-0.6607,-0.6632,-0.6647,-0.6659,-0.6667,-0.6688,-0.6712,-0.6696,-0.6704,-0.6695,-0.6714,-0.6762,-0.6694,-0.6694,-0.6707,-0.6814,-0.6828,-0.6837,-0.6752,-0.6753,-0.6754,-0.6813,0,-0.6624,-0.6667,-0.6657,-0.67,-0.6719,-0.6698,-0.6719,-0.6726,-0.6723,-0.6739,-0.6737,-0.6755,-0.6731,-0.6736,-0.6754,-0.6752,-0.6783,-0.6748,-0.6772,-0.6773,-0.6772,-0.6847,-0.6862,-0.6918,-0.6821,-0.6822,-0.6823,0,-0.6696,-0.6708,-0.6753,-0.6756,-0.6764,-0.6784,-0.6797,-0.6812,-0.6819,-0.6816,-0.6825,-0.6812,-0.6837,-0.6808,-0.6843,-0.6819,-0.6828,-0.6829,-0.683,-0.6833,-0.6802,-0.6853,-0.6935,-0.6944,-0.6835,-0.6834,-0.6833,0,-0.6751,-0.6778,-0.6809,-0.6814,-0.6818,-0.6833,-0.6836,-0.6841,-0.6851,-0.6862,-0.6868,-0.6883,-0.6891,-0.6902,-0.6893,-0.6873,-0.693,-0.69,-0.6929,-0.6929,-0.6942,-0.6942,-0.7028,-0.6946,-0.6946,-0.6946,-0.6946,0,-0.6816,-0.6845,-0.6834,-0.6853,-0.6884,-0.6872,-0.6903,-0.6903,-0.6908,-0.6927,-0.6909,-0.6927,-0.6914,-0.6931,-0.6925,-0.6955,-0.6958,-0.6957,-0.6955,-0.6959,-0.696,-0.6966,-0.6962,-0.6948,-0.6948,-0.6947,-0.6947,0,-0.6884,-0.6877,-0.6909,-0.6911,-0.6912,-0.6935,-0.6937,-0.6955,-0.6951,-0.6975,-0.698,-0.6975,-0.6994,-0.6986,-0.7006,-0.7002,-0.7041,-0.7033,-0.7039,-0.7037,-0.7067,-0.7065,-0.7161,-0.7174,-0.7083,-0.7084,-0.7084,0,-0.6926,-0.6948,-0.6952,-0.6963,-0.6967,-0.6986,-0.6996,-0.6985,-0.6996,-0.7005,-0.7022,-0.704,-0.7053,-0.7085,-0.7083,-0.7098,-0.7091,-0.7124,-0.7094,-0.7097,-0.7093,-0.7093,-0.7095,-0.7131,-0.7132,-0.7133,-0.7133,0,-0.7002,-0.6998,-0.7014,-0.7028,-0.7041,-0.7052,-0.7061,-0.7071,-0.7061,-0.7074,-0.7094,-0.7104,-0.7125,-0.7143,-0.7157,-0.7159,-0.7145,-0.7143,-0.715,-0.7155,-0.7158,-0.7158,-0.7057,-0.7141,-0.714,-0.714,-0.7139,-0.7139,-0.7059,-0.7078,-0.7084,-0.7102,-0.7108,-0.7117,-0.7134,-0.7133,-0.7149,-0.7165,-0.7157,-0.718,-0.7187,-0.7204,-0.7208,-0.7226,-0.7213,-0.7224,-0.7227,-0.723,-0.7235,-0.7155,-0.7229,-0.7228,-0.7228,-0.7228,-0.7228,0,-0.7136,-0.7139,-0.7155,-0.7169,-0.7183,-0.7168,-0.7178,-0.7191,-0.7211,-0.7219,-0.7232,-0.7255,-0.7273,-0.7272,-0.7288,-0.7302,-0.7296,-0.7307,-0.7307,-0.7308,-0.7245,-0.7237,-0.7312,-0.7312,-0.7312,-0.7312,-0.7312,-0.7312,-0.7177,-0.7208,-0.7205,-0.7239,-0.7241,-0.7264,-0.7271,-0.7279,-0.7285,-0.7311,-0.7326,-0.7325,-0.733,-0.7346,-0.7361,-0.7361,-0.7368,-0.7382,-0.7379,-0.732,-0.7312,-0.7304,-0.7297,-0.7383,-0.7383,-0.744,-0.7441,-0.7441]}]]